Time,TemperatureF,DewpointF,PressureIn,WindDirection,WindDirectionDegrees,WindSpeedMPH,WindSpeedGustMPH,Humidity,HourlyPrecipIn,Conditions,Clouds,dailyrainin,SoftwareType,DateUTC
2013-05-30 00:08:00,68.8,65.0,29.93,SE,143,0.0,1.0,88,0.00,,,0.00,weatherlink.com 1.10,2013-05-30 04:08:00,
2013-05-30 00:23:00,68.7,65.0,29.93,SSE,156,1.0,4.0,88,0.00,,,0.00,weatherlink.com 1.10,2013-05-30 04:23:00,
2013-05-30 00:38:00,68.7,65.0,29.93,SSE,163,0.0,3.0,88,0.00,,,0.00,weatherlink.com 1.10,2013-05-30 04:38:00,
2013-05-30 00:53:00,68.7,65.0,29.93,SSE,153,2.0,4.0,89,0.00,,,0.00,weatherlink.com 1.10,2013-05-30 04:53:00,
2013-05-30 01:08:00,68.9,66.0,29.94,SE,134,1.0,4.0,89,0.00,,,0.00,weatherlink.com 1.10,2013-05-30 05:08:00,
2013-05-30 01:23:00,69.5,66.0,29.94,SE,130,3.0,6.0,88,0.00,,,0.00,weatherlink.com 1.10,2013-05-30 05:23:00,
2013-05-30 01:38:00,69.7,66.0,29.95,SSW,195,1.0,6.0,87,0.00,,,0.00,weatherlink.com 1.10,2013-05-30 05:38:00,
2013-05-30 01:53:00,69.6,66.0,29.95,SW,229,2.0,4.0,87,0.00,,,0.00,weatherlink.com 1.10,2013-05-30 05:53:00,
2013-05-30 02:08:00,69.2,65.0,29.95,SE,141,0.0,3.0,87,0.00,,,0.00,weatherlink.com 1.10,2013-05-30 06:08:00,
2013-05-30 02:23:00,68.8,65.0,29.95,WSW,238,1.0,3.0,88,0.00,,,0.00,weatherlink.com 1.10,2013-05-30 06:23:00,
2013-05-30 02:38:00,68.2,65.0,29.96,SSW,210,0.0,2.0,88,0.00,,,0.00,weatherlink.com 1.10,2013-05-30 06:38:00,
2013-05-30 02:53:00,67.7,64.0,29.96,South,176,2.0,2.0,89,0.00,,,0.00,weatherlink.com 1.10,2013-05-30 06:53:00,
2013-05-30 03:08:00,67.6,64.0,29.95,WSW,245,0.0,2.0,88,0.00,,,0.00,weatherlink.com 1.10,2013-05-30 07:08:00,
2013-05-30 03:23:00,67.1,64.0,29.96,SSW,198,0.0,1.0,89,0.00,,,0.00,weatherlink.com 1.10,2013-05-30 07:23:00,
2013-05-30 03:38:00,66.9,64.0,29.95,South,186,0.0,2.0,89,0.00,,,0.00,weatherlink.com 1.10,2013-05-30 07:38:00,
2013-05-30 03:53:00,66.4,63.0,29.96,SSE,153,1.0,1.0,89,0.00,,,0.00,weatherlink.com 1.10,2013-05-30 07:53:00,
2013-05-30 04:08:00,66.2,63.0,29.96,SSE,156,0.0,3.0,90,0.00,,,0.00,weatherlink.com 1.10,2013-05-30 08:08:00,
2013-05-30 04:23:00,66.6,63.0,29.96,South,172,0.0,3.0,88,0.00,,,0.00,weatherlink.com 1.10,2013-05-30 08:23:00,
2013-05-30 04:38:00,66.9,63.0,29.96,SSE,151,3.0,4.0,87,0.00,,,0.00,weatherlink.com 1.10,2013-05-30 08:38:00,
2013-05-30 04:53:00,67.0,63.0,29.95,SSE,148,2.0,4.0,86,0.00,,,0.00,weatherlink.com 1.10,2013-05-30 08:53:00,
2013-05-30 05:08:00,66.8,63.0,29.95,SE,125,1.0,5.0,86,0.00,,,0.00,weatherlink.com 1.10,2013-05-30 09:08:00,
2013-05-30 05:23:00,66.8,63.0,29.95,SE,145,0.0,4.0,86,0.00,,,0.00,weatherlink.com 1.10,2013-05-30 09:23:00,
2013-05-30 05:38:00,66.9,63.0,29.96,SE,132,3.0,4.0,86,0.00,,,0.00,weatherlink.com 1.10,2013-05-30 09:38:00,
2013-05-30 05:53:00,67.1,63.0,29.96,SE,142,0.0,5.0,85,0.00,,,0.00,weatherlink.com 1.10,2013-05-30 09:53:00,
2013-05-30 06:08:00,67.3,62.0,29.96,WSW,250,0.0,4.0,84,0.00,,,0.00,weatherlink.com 1.10,2013-05-30 10:08:00,
2013-05-30 06:23:00,67.4,62.0,29.96,SSW,204,1.0,4.0,84,0.00,,,0.00,weatherlink.com 1.10,2013-05-30 10:23:00,
2013-05-30 06:38:00,68.0,63.0,29.97,SSE,163,2.0,5.0,84,0.00,,,0.00,weatherlink.com 1.10,2013-05-30 10:38:00,
2013-05-30 06:53:00,68.8,63.0,29.98,WSW,258,3.0,7.0,82,0.00,,,0.00,weatherlink.com 1.10,2013-05-30 10:53:00,
2013-05-30 07:08:00,69.8,64.0,29.98,WSW,252,2.0,6.0,81,0.00,,,0.00,weatherlink.com 1.10,2013-05-30 11:08:00,
2013-05-30 07:23:00,70.4,64.0,29.98,SSW,192,3.0,9.0,80,0.00,,,0.00,weatherlink.com 1.10,2013-05-30 11:23:00,
2013-05-30 07:38:00,70.1,64.0,29.98,South,173,1.0,5.0,81,0.00,,,0.00,weatherlink.com 1.10,2013-05-30 11:38:00,
2013-05-30 07:54:00,70.3,64.0,29.99,SSE,167,2.0,6.0,81,0.00,,,0.00,weatherlink.com 1.10,2013-05-30 11:54:00,
2013-05-30 08:09:00,71.6,65.0,29.98,SW,231,3.0,6.0,79,0.00,,,0.00,weatherlink.com 1.10,2013-05-30 12:09:00,
2013-05-30 08:24:00,72.8,66.0,29.98,SW,235,4.0,7.0,78,0.00,,,0.00,weatherlink.com 1.10,2013-05-30 12:24:00,
2013-05-30 08:39:00,73.8,66.0,29.98,WSW,251,4.0,9.0,77,0.00,,,0.00,weatherlink.com 1.10,2013-05-30 12:39:00,
2013-05-30 08:54:00,74.8,67.0,29.99,WSW,246,4.0,8.0,77,0.00,,,0.00,weatherlink.com 1.10,2013-05-30 12:54:00,
2013-05-30 09:09:00,76.0,68.0,29.98,SE,141,1.0,8.0,75,0.00,,,0.00,weatherlink.com 1.10,2013-05-30 13:09:00,
2013-05-30 09:24:00,77.0,67.0,29.98,SSW,213,3.0,10.0,72,0.00,,,0.00,weatherlink.com 1.10,2013-05-30 13:24:00,
2013-05-30 09:39:00,77.7,68.0,29.98,South,179,7.0,12.0,72,0.00,,,0.00,weatherlink.com 1.10,2013-05-30 13:39:00,
2013-05-30 09:54:00,78.7,68.0,29.98,SSE,156,6.0,13.0,70,0.00,,,0.00,weatherlink.com 1.10,2013-05-30 13:54:00,
2013-05-30 10:09:00,79.5,69.0,29.98,SW,225,7.0,11.0,71,0.00,,,0.00,weatherlink.com 1.10,2013-05-30 14:09:00,
2013-05-30 10:24:00,80.1,69.0,29.98,WSW,240,1.0,12.0,68,0.00,,,0.00,weatherlink.com 1.10,2013-05-30 14:24:00,
2013-05-30 10:39:00,80.6,69.0,29.97,West,264,9.0,12.0,67,0.00,,,0.00,weatherlink.com 1.10,2013-05-30 14:39:00,
2013-05-30 10:54:00,80.9,69.0,29.97,WSW,246,7.0,12.0,67,0.00,,,0.00,weatherlink.com 1.10,2013-05-30 14:54:00,
2013-05-30 11:09:00,81.7,69.0,29.97,WSW,249,8.0,12.0,66,0.00,,,0.00,weatherlink.com 1.10,2013-05-30 15:09:00,
2013-05-30 11:24:00,82.4,69.0,29.97,WNW,290,6.0,12.0,65,0.00,,,0.00,weatherlink.com 1.10,2013-05-30 15:24:00,
2013-05-30 11:39:00,82.9,69.0,29.97,SSW,213,9.0,13.0,64,0.00,,,0.00,weatherlink.com 1.10,2013-05-30 15:39:00,
2013-05-30 11:54:00,83.5,71.0,29.97,SW,231,2.0,13.0,66,0.00,,,0.00,weatherlink.com 1.10,2013-05-30 15:54:00,
2013-05-30 12:09:00,83.6,71.0,29.97,WSW,246,7.0,14.0,65,0.00,,,0.00,weatherlink.com 1.10,2013-05-30 16:09:00,
2013-05-30 12:24:00,84.1,71.0,29.97,SSW,206,3.0,13.0,64,0.00,,,0.00,weatherlink.com 1.10,2013-05-30 16:24:00,
2013-05-30 12:39:00,84.2,70.0,29.96,SSE,163,6.0,14.0,63,0.00,,,0.00,weatherlink.com 1.10,2013-05-30 16:39:00,
2013-05-30 12:54:00,84.0,71.0,29.96,South,174,3.0,12.0,64,0.00,,,0.00,weatherlink.com 1.10,2013-05-30 16:54:00,
2013-05-30 13:09:00,84.2,71.0,29.96,SSE,156,5.0,12.0,64,0.00,,,0.00,weatherlink.com 1.10,2013-05-30 17:09:00,
2013-05-30 13:24:00,85.2,72.0,29.95,SSE,160,3.0,12.0,64,0.00,,,0.00,weatherlink.com 1.10,2013-05-30 17:24:00,
2013-05-30 13:39:00,85.4,72.0,29.94,SSW,208,1.0,12.0,65,0.00,,,0.00,weatherlink.com 1.10,2013-05-30 17:39:00,
2013-05-30 13:54:00,85.8,70.0,29.93,SSE,153,9.0,16.0,60,0.00,,,0.00,weatherlink.com 1.10,2013-05-30 17:54:00,
2013-05-30 14:10:00,86.2,70.0,29.93,WSW,255,9.0,14.0,59,0.00,,,0.00,weatherlink.com 1.10,2013-05-30 18:10:00,
2013-05-30 14:25:00,84.6,70.0,29.93,SW,222,5.0,14.0,61,0.00,,,0.00,weatherlink.com 1.10,2013-05-30 18:25:00,
2013-05-30 14:40:00,83.2,70.0,29.93,SSW,195,4.0,18.0,64,0.00,,,0.00,weatherlink.com 1.10,2013-05-30 18:40:00,
2013-05-30 14:55:00,83.7,71.0,29.93,SSW,198,5.0,14.0,65,0.00,,,0.00,weatherlink.com 1.10,2013-05-30 18:55:00,
2013-05-30 15:10:00,84.6,71.0,29.92,SE,145,5.0,16.0,64,0.00,,,0.00,weatherlink.com 1.10,2013-05-30 19:10:00,
2013-05-30 15:25:00,85.2,72.0,29.92,ESE,114,3.0,13.0,65,0.00,,,0.00,weatherlink.com 1.10,2013-05-30 19:25:00,
2013-05-30 15:40:00,86.1,73.0,29.92,SE,136,3.0,10.0,65,0.00,,,0.00,weatherlink.com 1.10,2013-05-30 19:40:00,
2013-05-30 15:55:00,85.9,73.0,29.92,SW,236,11.0,11.0,65,0.00,,,0.00,weatherlink.com 1.10,2013-05-30 19:55:00,
2013-05-30 16:10:00,85.9,73.0,29.92,SE,146,8.0,13.0,65,0.00,,,0.00,weatherlink.com 1.10,2013-05-30 20:10:00,
2013-05-30 16:25:00,84.8,73.0,29.91,SW,235,2.0,11.0,68,0.00,,,0.00,weatherlink.com 1.10,2013-05-30 20:25:00,
2013-05-30 16:40:00,85.1,72.0,29.89,SSW,195,5.0,11.0,66,0.00,,,0.00,weatherlink.com 1.10,2013-05-30 20:40:00,
2013-05-30 16:55:00,85.2,71.0,29.89,SSW,211,7.0,13.0,63,0.00,,,0.00,weatherlink.com 1.10,2013-05-30 20:55:00,
2013-05-30 17:10:00,84.6,71.0,29.90,SW,221,6.0,13.0,63,0.00,,,0.00,weatherlink.com 1.10,2013-05-30 21:10:00,
2013-05-30 17:25:00,83.9,67.0,29.89,ESE,118,4.0,18.0,57,0.00,,,0.00,weatherlink.com 1.10,2013-05-30 21:25:00,
2013-05-30 17:40:00,79.7,67.0,29.89,SSW,204,10.0,13.0,65,0.00,,,0.00,weatherlink.com 1.10,2013-05-30 21:40:00,
2013-05-30 17:55:00,80.6,69.0,29.90,SE,142,4.0,7.0,67,0.00,,,0.00,weatherlink.com 1.10,2013-05-30 21:55:00,
2013-05-30 18:10:00,81.9,70.0,29.91,ESE,121,3.0,10.0,68,0.00,,,0.00,weatherlink.com 1.10,2013-05-30 22:10:00,
2013-05-30 18:25:00,81.6,72.0,29.90,SSE,162,1.0,6.0,73,0.00,,,0.00,weatherlink.com 1.10,2013-05-30 22:25:00,
2013-05-30 18:40:00,80.2,72.0,29.91,SSE,149,1.0,5.0,76,0.00,,,0.00,weatherlink.com 1.10,2013-05-30 22:40:00,
2013-05-30 18:55:00,79.8,72.0,29.91,SE,140,3.0,9.0,78,0.00,,,0.00,weatherlink.com 1.10,2013-05-30 22:55:00,
2013-05-30 19:10:00,79.9,73.0,29.90,ESE,114,4.0,8.0,79,0.00,,,0.00,weatherlink.com 1.10,2013-05-30 23:10:00,
2013-05-30 19:25:00,79.6,71.0,29.89,NNW,346,2.0,8.0,76,0.00,,,0.00,weatherlink.com 1.10,2013-05-30 23:25:00,
2013-05-30 19:40:00,79.9,71.0,29.89,SE,132,5.0,7.0,73,0.00,,,0.00,weatherlink.com 1.10,2013-05-30 23:40:00,
2013-05-30 19:55:00,79.9,71.0,29.90,ESE,116,2.0,9.0,73,0.00,,,0.00,weatherlink.com 1.10,2013-05-30 23:55:00,
2013-05-30 20:10:00,79.1,70.0,29.91,SSE,166,5.0,9.0,73,0.00,,,0.00,weatherlink.com 1.10,2013-05-31 00:10:00,
2013-05-30 20:25:00,77.9,70.0,29.91,SE,139,2.0,9.0,76,0.00,,,0.00,weatherlink.com 1.10,2013-05-31 00:25:00,
2013-05-30 20:40:00,77.2,70.0,29.91,ESE,117,1.0,5.0,77,0.00,,,0.00,weatherlink.com 1.10,2013-05-31 00:40:00,
2013-05-30 20:55:00,76.8,69.0,29.92,South,174,2.0,8.0,77,0.00,,,0.00,weatherlink.com 1.10,2013-05-31 00:55:00,
2013-05-30 21:10:00,73.8,68.0,29.92,SSW,196,1.0,18.0,83,0.10,,,0.10,weatherlink.com 1.10,2013-05-31 01:10:00,
2013-05-30 21:25:00,71.7,69.0,29.93,West,267,1.0,1.0,90,0.11,,,0.11,weatherlink.com 1.10,2013-05-31 01:25:00,
2013-05-30 21:40:00,71.2,69.0,29.93,East,98,0.0,2.0,93,0.11,,,0.11,weatherlink.com 1.10,2013-05-31 01:40:00,
2013-05-30 21:55:00,71.2,69.0,29.92,SE,124,1.0,2.0,92,0.11,,,0.11,weatherlink.com 1.10,2013-05-31 01:55:00,
2013-05-30 22:10:00,71.1,69.0,29.92,East,80,3.0,3.0,92,0.01,,,0.11,weatherlink.com 1.10,2013-05-31 02:10:00,
2013-05-30 22:25:00,71.4,69.0,29.92,SE,136,2.0,4.0,92,0.00,,,0.11,weatherlink.com 1.10,2013-05-31 02:25:00,
2013-05-30 22:41:00,71.5,69.0,29.91,ESE,106,1.0,6.0,91,0.00,,,0.11,weatherlink.com 1.10,2013-05-31 02:41:00,
2013-05-30 22:55:00,71.1,69.0,29.92,SE,134,2.0,4.0,92,0.00,,,0.11,weatherlink.com 1.10,2013-05-31 02:55:00,
2013-05-30 23:10:00,70.9,69.0,29.92,SE,138,2.0,6.0,92,0.00,,,0.11,weatherlink.com 1.10,2013-05-31 03:10:00,
2013-05-30 23:25:00,70.6,68.0,29.93,SE,143,2.0,4.0,92,0.00,,,0.11,weatherlink.com 1.10,2013-05-31 03:25:00,
2013-05-30 23:40:00,71.1,68.0,29.93,SSE,153,7.0,8.0,90,0.00,,,0.11,weatherlink.com 1.10,2013-05-31 03:40:00,
2013-05-30 23:55:00,72.0,68.0,29.93,WSW,250,6.0,12.0,88,0.00,,,0.11,weatherlink.com 1.10,2013-05-31 03:55:00,